Home > Weather > Winnipeg > Past weeks

Flag for Canada Weather for the Past 2 Weeks in Winnipeg, Manitoba, Canada

Now
6 °F

Frigid.


Feels Like: 6 °F
Forecast: N/A
Wind: 2 mph from East

Location: Winnipeg The Forks Man

Current Time: Feb 10, 2016 at 4:35:47 PM

Latest Report: Feb 10, 2016 at 3:00 PM


Visibility: N/A

Pressure: 30.33 "Hg

Humidity: 54%

Dew point: -8 °F

Location of WinnipegLocation

Historic Weather in Winnipeg — Graph

°F

Winnipeg Temperature Yesterday

Maximum temperature yesterday: 4 °F (at 2:00 AM)
Minimum temperature yesterday: -4 °F (at 11:00 PM)
Average temperature yesterday: 1 °F

High & Low Weather Summary for the Past Weeks

 TemperatureHumidityPressure
High38 °F (Jan 27, 4:00 PM)99% (Feb 7, 7:00 AM)30.43 "Hg (Feb 7, 7:00 AM)
Low-5 °F (Feb 10, 4:00 AM)54% (Feb 10, 3:00 PM)29.19 "Hg (Jan 30, 1:00 AM)
Average17 °F78%29.93 "Hg
* Reported Jan 26 3:00 PM — Feb 10 3:00 PM, Winnipeg, Weather by CustomWeather, © 2016

Note: Actual official high and low records may vary slightly from our data, if they occured in-between our weather recording intervals... More about our weather records

Advertising

Winnipeg Weather History for the Previous 24 Hours

 ConditionsComfort  
Time TempWeatherWind HumidityBarometerVisibility
3:00 PM
Wed, Feb 10
6 °FFrigid.2 mph54%30.33 "HgN/A
2:00 PM4 °FFrigid.1 mph56%30.31 "HgN/A
1:00 PM3 °FFrigid.2 mph62%30.30 "HgN/A
12:00 PM1 °FFrigid.3 mph65%30.30 "HgN/A
11:00 AM0 °FFrigid.2 mph67%30.29 "HgN/A
10:00 AM-2 °FFrigid.3 mph72%30.27 "HgN/A
9:00 AM-3 °FFrigid.2 mph73%30.26 "HgN/A
8:00 AM-3 °FFrigid.3 mph72%30.27 "HgN/A
7:00 AM-3 °FFrigid.3 mph73%30.26 "HgN/A
6:00 AM-3 °FFrigid.3 mph72%30.25 "HgN/A
5:00 AM-4 °FFrigid.3 mph73%30.24 "HgN/A
4:00 AM-5 °FFrigid.3 mph74%30.23 "HgN/A
3:00 AM-4 °FFrigid.3 mph73%30.24 "HgN/A
2:00 AM-4 °FFrigid.2 mph72%30.27 "HgN/A
1:00 AM-4 °FFrigid.2 mph71%30.29 "HgN/A
12:00 AM-4 °FFrigid.1 mph70%30.31 "HgN/A
11:00 PM
Tue, Feb 9
-4 °FFrigid.2 mph73%30.32 "HgN/A
10:00 PM-4 °FFrigid.2 mph73%30.33 "HgN/A
9:00 PM-3 °FFrigid.1 mph73%30.35 "HgN/A
8:00 PM-1 °FFrigid.2 mph67%30.36 "HgN/A
7:00 PM-1 °FFrigid.3 mph67%30.37 "HgN/A
6:00 PM0 °FFrigid.3 mph65%30.37 "HgN/A
5:00 PM2 °FFrigid.3 mph64%30.39 "HgN/A
4:00 PM2 °FFrigid.6 mph63%30.39 "HgN/A
Weather by CustomWeather, © 2016

See weather overviewHow to use our weather pages